Meteo pe oră la Al Marfa

Astăzi, 17 Ianuarie, Duminică

Timp Temperatura Precipitaţii Vânt Presiune Umiditate
00:00 +16°C° 0 mm 0 m/s 759 mmHg 52%
01:00 +16°C° 0 mm 0 m/s 759 mmHg 52%
02:00 +15°C° 0 mm 0 m/s 759 mmHg 52%
03:00 +15°C° 0 mm 0 m/s 758 mmHg 51%
04:00 +16°C° 0 mm 1 m/s 758 mmHg 47%
05:00 +18°C° 0 mm 1 m/s 759 mmHg 43%
06:00 +17°C° 0 mm 2 m/s 759 mmHg 39%
07:00 +18°C° 0 mm 2 m/s 759 mmHg 35%
08:00 +20°C° 0 mm 2 m/s 760 mmHg 32%
09:00 +23°C° 0 mm 2 m/s 760 mmHg 29%
10:00 +25°C° 0 mm 2 m/s 760 mmHg 27%
11:00 +26°C° 0 mm 2 m/s 759 mmHg 26%
12:00 +27°C° 0 mm 2 m/s 759 mmHg 26%
13:00 +28°C° 0 mm 2 m/s 759 mmHg 25%
14:00 +28°C° 0 mm 2 m/s 758 mmHg 28%
15:00 +28°C° 0 mm 3 m/s 758 mmHg 30%
16:00 +28°C° 0 mm 3 m/s 758 mmHg 33%
17:00 +26°C° 0 mm 3 m/s 758 mmHg 41%
18:00 +24°C° 0 mm 3 m/s 759 mmHg 50%
19:00 +21°C° 0 mm 3 m/s 759 mmHg 58%
20:00 +21°C° 0 mm 3 m/s 759 mmHg 58%
21:00 +21°C° 0 mm 2 m/s 759 mmHg 58%
22:00 +20°C° 0 mm 2 m/s 759 mmHg 58%
23:00 +20°C° 0 mm 2 m/s 759 mmHg 56%

Mâine, 18 Ianuarie, Luni

Timp Temperatura Precipitaţii Vânt Presiune Umiditate
00:00 +20°C° 0 mm 3 m/s 759 mmHg 54%
01:00 +20°C° 0 mm 3 m/s 759 mmHg 52%
02:00 +20°C° 0 mm 3 m/s 759 mmHg 51%
03:00 +20°C° 0 mm 3 m/s 759 mmHg 50%
04:00 +20°C° 0 mm 2 m/s 759 mmHg 48%
05:00 +20°C° 0 mm 3 m/s 759 mmHg 46%
06:00 +20°C° 0 mm 3 m/s 760 mmHg 45%
07:00 +20°C° 0 mm 3 m/s 760 mmHg 43%
08:00 +22°C° 0 mm 3 m/s 761 mmHg 39%
09:00 +24°C° 0 mm 3 m/s 761 mmHg 35%
10:00 +26°C° 0 mm 3 m/s 762 mmHg 31%
11:00 +27°C° 0 mm 3 m/s 761 mmHg 28%
12:00 +28°C° 0 mm 3 m/s 761 mmHg 26%
13:00 +30°C° 0 mm 3 m/s 761 mmHg 23%
14:00 +29°C° 0 mm 4 m/s 760 mmHg 29%
15:00 +28°C° 0 mm 4 m/s 760 mmHg 34%
16:00 +27°C° 0 mm 5 m/s 760 mmHg 39%
17:00 +25°C° 0 mm 5 m/s 760 mmHg 49%
18:00 +23°C° 0 mm 4 m/s 761 mmHg 58%
19:00 +21°C° 0 mm 4 m/s 761 mmHg 67%
20:00 +21°C° 0 mm 4 m/s 761 mmHg 72%
21:00 +21°C° 0 mm 4 m/s 762 mmHg 77%
22:00 +20°C° 0 mm 4 m/s 762 mmHg 82%
23:00 +20°C° 0 mm 4 m/s 762 mmHg 83%

Poimâine, 19 Ianuarie, Marţi

Timp Temperatura Precipitaţii Vânt Presiune Umiditate
00:00 +20°C° 0 mm 3 m/s 762 mmHg 84%
01:00 +20°C° 0 mm 3 m/s 762 mmHg 86%
02:00 +20°C° 0 mm 3 m/s 761 mmHg 84%
03:00 +19°C° 0 mm 4 m/s 761 mmHg 82%
04:00 +19°C° 0 mm 4 m/s 761 mmHg 80%
05:00 +19°C° 0 mm 4 m/s 762 mmHg 80%
06:00 +19°C° 0 mm 4 m/s 762 mmHg 80%
07:00 +19°C° 0 mm 4 m/s 762 mmHg 80%
08:00 +21°C° 0 mm 4 m/s 763 mmHg 72%
09:00 +22°C° 0 mm 4 m/s 763 mmHg 63%
10:00 +23°C° 0 mm 5 m/s 763 mmHg 54%
11:00 +25°C° 0 mm 5 m/s 763 mmHg 50%
12:00 +25°C° 0 mm 5 m/s 762 mmHg 47%
13:00 +26°C° 0 mm 5 m/s 762 mmHg 44%
14:00 +26°C° 0 mm 5 m/s 761 mmHg 45%
15:00 +25°C° 0 mm 5 m/s 761 mmHg 46%
16:00 +25°C° 0 mm 5 m/s 760 mmHg 47%
17:00 +22°C° 0 mm 5 m/s 761 mmHg 55%
18:00 +21°C° 0 mm 4 m/s 761 mmHg 63%
19:00 +20°C° 0 mm 4 m/s 761 mmHg 71%
20:00 +20°C° 0 mm 4 m/s 762 mmHg 72%
21:00 +19°C° 0 mm 3 m/s 762 mmHg 73%
22:00 +19°C° 0 mm 3 m/s 762 mmHg 73%
23:00 +19°C° 0 mm 3 m/s 762 mmHg 74%

20 Ianuarie, Miercuri

Timp Temperatura Precipitaţii Vânt Presiune Umiditate
00:00 +19°C° 0 mm 4 m/s 762 mmHg 75%
01:00 +18°C° 0 mm 4 m/s 762 mmHg 76%
02:00 +18°C° 0 mm 4 m/s 762 mmHg 77%
03:00 +18°C° 0 mm 4 m/s 761 mmHg 78%
04:00 +18°C° 0 mm 4 m/s 761 mmHg 79%
05:00 +18°C° 0 mm 4 m/s 762 mmHg 80%
06:00 +18°C° 0 mm 3 m/s 762 mmHg 80%
07:00 +18°C° 0 mm 3 m/s 762 mmHg 80%
08:00 +19°C° 0 mm 3 m/s 762 mmHg 71%
09:00 +21°C° 0 mm 2 m/s 762 mmHg 62%
10:00 +23°C° 0 mm 2 m/s 762 mmHg 53%
11:00 +24°C° 0 mm 2 m/s 762 mmHg 47%
12:00 +25°C° 0 mm 2 m/s 761 mmHg 42%
13:00 +26°C° 0 mm 2 m/s 761 mmHg 37%
14:00 +26°C° 0 mm 2 m/s 760 mmHg 38%
15:00 +26°C° 0 mm 2 m/s 760 mmHg 38%
16:00 +26°C° 0 mm 2 m/s 760 mmHg 39%
17:00 +24°C° 0 mm 2 m/s 760 mmHg 44%
18:00 +23°C° 0 mm 2 m/s 760 mmHg 49%
19:00 +21°C° 0 mm 2 m/s 760 mmHg 53%
20:00 +20°C° 0 mm 2 m/s 761 mmHg 53%
21:00 +20°C° 0 mm 2 m/s 761 mmHg 54%
22:00 +20°C° 0 mm 2 m/s 761 mmHg 54%
23:00 +20°C° 0 mm 1 m/s 761 mmHg 54%

21 Ianuarie, Joi

Timp Temperatura Precipitaţii Vânt Presiune Umiditate
00:00 +20°C° 0 mm 1 m/s 761 mmHg 54%
01:00 +19°C° 0 mm 1 m/s 761 mmHg 55%
02:00 +19°C° 0 mm 1 m/s 761 mmHg 51%
03:00 +20°C° 0 mm 1 m/s 761 mmHg 48%
04:00 +19°C° 0 mm 2 m/s 760 mmHg 45%
05:00 +19°C° 0 mm 2 m/s 761 mmHg 43%
06:00 +20°C° 0 mm 3 m/s 761 mmHg 41%
07:00 +20°C° 0 mm 3 m/s 762 mmHg 39%
08:00 +21°C° 0 mm 5 m/s 762 mmHg 45%
09:00 +22°C° 0 mm 7 m/s 763 mmHg 52%
10:00 +23°C° 0 mm 9 m/s 764 mmHg 59%
11:00 +23°C° 0 mm 9 m/s 764 mmHg 58%
12:00 +23°C° 0 mm 10 m/s 763 mmHg 56%
13:00 +23°C° 0 mm 10 m/s 763 mmHg 55%
14:00 +22°C° 0 mm 10 m/s 763 mmHg 56%
15:00 +22°C° 0 mm 10 m/s 763 mmHg 56%
16:00 +21°C° 0 mm 10 m/s 763 mmHg 57%
17:00 +19°C° 0 mm 10 m/s 763 mmHg 60%
18:00 +19°C° 0 mm 9 m/s 764 mmHg 62%
19:00 +18°C° 0 mm 9 m/s 764 mmHg 65%
20:00 +18°C° 0 mm 9 m/s 764 mmHg 65%
21:00 +17°C° 0 mm 9 m/s 764 mmHg 66%
22:00 +17°C° 0 mm 9 m/s 764 mmHg 66%
23:00 +17°C° 0 mm 9 m/s 764 mmHg 67%

22 Ianuarie, Vineri

Timp Temperatura Precipitaţii Vânt Presiune Umiditate
00:00 +16°C° 0 mm 9 m/s 764 mmHg 68%
01:00 +16°C° 0 mm 9 m/s 764 mmHg 70%
02:00 +16°C° 0 mm 9 m/s 764 mmHg 70%
03:00 +16°C° 0 mm 9 m/s 764 mmHg 70%
04:00 +16°C° 0 mm 9 m/s 764 mmHg 71%
05:00 +16°C° 0 mm 9 m/s 764 mmHg 72%
06:00 +15°C° 0 mm 8 m/s 764 mmHg 73%
07:00 +15°C° 0 mm 8 m/s 764 mmHg 74%
08:00 +16°C° 0 mm 8 m/s 765 mmHg 70%
09:00 +17°C° 0 mm 9 m/s 765 mmHg 66%
10:00 +18°C° 0 mm 9 m/s 765 mmHg 61%
11:00 +18°C° 0 mm 9 m/s 765 mmHg 60%
12:00 +19°C° 0 mm 9 m/s 764 mmHg 59%
13:00 +19°C° 0 mm 9 m/s 764 mmHg 57%
14:00 +19°C° 0 mm 9 m/s 764 mmHg 58%
15:00 +19°C° 0 mm 9 m/s 763 mmHg 59%
16:00 +18°C° 0 mm 9 m/s 763 mmHg 60%
17:00 +18°C° 0 mm 9 m/s 763 mmHg 64%
18:00 +17°C° 0 mm 8 m/s 763 mmHg 68%
19:00 +16°C° 0 mm 8 m/s 764 mmHg 72%
20:00 +16°C° 0 mm 8 m/s 764 mmHg 73%
21:00 +16°C° 0 mm 8 m/s 764 mmHg 74%
22:00 +16°C° 0 mm 8 m/s 764 mmHg 75%
23:00 +16°C° 0 mm 8 m/s 764 mmHg 76%
Arată mai mult

Formular de consimțământ

Meteoprog și furnizorii noștri de servicii pot stoca și accesa date personale, precum cookies, identificatori de dispozitiv sau alte tehnologii similare pe dispozitivul dumneavoastră și procesa astfel de date pentru a personaliza conținutul și reclamele, dar și pentru a oferi caracteristici de social media și pentru a analiza traficul.

  • Stocarea și/sau accesarea informațiilor pe dispozitivul dumneavoastră

    Cookies, identificatori de dispozitiv sau alte informații pot fi stocate sau accesate pe dispozitiv în scopurile indicate mai sus.

  • Reclame și conținut personalizat, evaluarea reclamelor și a conținutului, informații despre audiențe și dezvoltarea produselor

    Reclamele și conținutul pot fi personalizate pe baza unui profil. Pot fi adăugate date suplimentare pentru a personaliza mai bine reclamele și conținutul. Performanța reclamelor și conținutului poate fi măsurată. Pot fi obținute informații despre utilizatorii care au văzut reclamele și conținutul. Aceste date pot fi utilizate pentru a dezvolta sau îmbunătăți experiența utilizatorilor, sistemele și software-ul.

Dând clic pe ‘Sunt de acord’, permiteți utilizarea cookie-urilor menționate, a identificatorilor de dispozitiv, balizelor web sau altor tehnologii similare. Setările pot fi modificate din browser-ul dispozitivului dumneavoastră.

În anumite scopuri, interesele legitime pot prima asupra consimțământului. Puteți citi mai multe informații în acest sens în Politica privind Confidențialitatea Datelor și Cookie.